Okean-O - Orbit

View from above orbital plane
View from above orbital plane
View from above satellite
View from above satellite

Ground track
Ground track

The orbit data is extracted from the following two-line orbital elements,

1 25860U 99039A   13139.13935010  .00000646  00000-0  10448-3 0  9480
2 25860 097.9876 101.9830 0001047 130.7107 296.0159 14.74586535744074
Epoch (UTC): 19 May 2013 03:20:39
Eccentricity: 0.0001047
inclination: 97.9876°
perigee height: 646 km
apogee height: 647 km
right ascension of ascending node: 101.9830°
argument of perigee: 130.7107°
revolutions per day: 14.74586535
mean anomaly at epoch: 296.0159°
orbit number at epoch: 74407

The dashed part of the orbit path shows where the satellite is in the earth's shadow,  

Developed and maintained by Chris Peat, Heavens-Above GmbH. Please read the updated FAQ before sending e-mail. Imprint. DLR